TimeEDT,TemperatureF,Dew PointF,Humidity,Sea Level PressureIn,VisibilityMPH,Wind Direction,Wind SpeedMPH,Gust SpeedMPH,PrecipitationIn,Events,Conditions,WindDirDegrees,DateUTC
12:15 AM,51.8,44.6,76,30.02,10.0,Calm,Calm,-,N/A,,Clear,0,2013-03-20 04:15:00
12:35 AM,50.0,44.6,82,30.02,10.0,Calm,Calm,-,N/A,,Clear,0,2013-03-20 04:35:00
12:55 AM,50.0,44.6,82,30.02,10.0,Calm,Calm,-,N/A,,Clear,0,2013-03-20 04:55:00
1:15 AM,50.0,44.6,82,30.02,10.0,Calm,Calm,-,N/A,,Clear,0,2013-03-20 05:15:00
1:35 AM,50.0,46.4,87,30.02,10.0,Calm,Calm,-,N/A,,Clear,0,2013-03-20 05:35:00
1:55 AM,50.0,44.6,82,30.02,7.0,Calm,Calm,-,N/A,,Clear,0,2013-03-20 05:55:00
2:15 AM,50.0,46.4,87,30.03,10.0,Calm,Calm,-,N/A,,Clear,0,2013-03-20 06:15:00
2:35 AM,50.0,46.4,87,30.02,10.0,Calm,Calm,-,N/A,,Clear,0,2013-03-20 06:35:00
2:55 AM,50.0,44.6,82,30.02,10.0,Calm,Calm,-,N/A,,Clear,0,2013-03-20 06:55:00
3:15 AM,48.2,44.6,87,30.01,10.0,Calm,Calm,-,N/A,,Clear,0,2013-03-20 07:15:00
3:35 AM,48.2,44.6,87,30.01,10.0,Calm,Calm,-,N/A,,Clear,0,2013-03-20 07:35:00
3:55 AM,46.4,44.6,93,30.01,10.0,Calm,Calm,-,N/A,,Clear,0,2013-03-20 07:55:00
4:15 AM,46.4,44.6,93,30.00,10.0,Calm,Calm,-,N/A,,Clear,0,2013-03-20 08:15:00
4:35 AM,46.4,44.6,93,30.01,10.0,Calm,Calm,-,N/A,,Clear,0,2013-03-20 08:35:00
4:55 AM,46.4,44.6,93,30.00,10.0,Calm,Calm,-,N/A,,Clear,0,2013-03-20 08:55:00
5:15 AM,44.6,42.8,93,30.01,10.0,Calm,Calm,-,N/A,,Clear,0,2013-03-20 09:15:00
5:35 AM,44.6,42.8,93,30.02,10.0,Calm,Calm,-,N/A,,Clear,0,2013-03-20 09:35:00
5:55 AM,44.6,42.8,93,30.03,10.0,Calm,Calm,-,N/A,,Clear,0,2013-03-20 09:55:00
6:15 AM,44.6,42.8,93,30.05,10.0,Calm,Calm,-,N/A,,Clear,0,2013-03-20 10:15:00
6:35 AM,42.8,41.0,93,30.05,10.0,Calm,Calm,-,N/A,,Clear,0,2013-03-20 10:35:00
6:55 AM,42.8,41.0,93,30.05,10.0,Calm,Calm,-,N/A,,Clear,0,2013-03-20 10:55:00
7:15 AM,42.8,41.0,93,30.06,10.0,Calm,Calm,-,N/A,,Clear,0,2013-03-20 11:15:00
7:35 AM,41.0,41.0,100,30.07,10.0,Calm,Calm,-,N/A,,Clear,0,2013-03-20 11:35:00
7:55 AM,41.0,41.0,100,30.08,10.0,Calm,Calm,-,N/A,,Clear,0,2013-03-20 11:55:00
8:15 AM,42.8,42.8,100,30.10,10.0,Calm,Calm,-,N/A,,Clear,0,2013-03-20 12:15:00
8:35 AM,46.4,41.0,81,30.10,10.0,Calm,Calm,-,N/A,,Clear,0,2013-03-20 12:35:00
8:55 AM,51.8,33.8,50,30.10,10.0,NE,4.6,-,N/A,,Scattered Clouds,50,2013-03-20 12:55:00
9:15 AM,53.6,32.0,44,30.11,10.0,NE,4.6,-,N/A,,Scattered Clouds,40,2013-03-20 13:15:00
9:35 AM,55.4,30.2,38,30.11,10.0,ENE,9.2,-,N/A,,Scattered Clouds,60,2013-03-20 13:35:00
9:55 AM,55.4,30.2,38,30.11,10.0,ENE,10.4,-,N/A,,Scattered Clouds,70,2013-03-20 13:55:00
10:15 AM,57.2,26.6,31,30.10,7.0,ENE,10.4,-,N/A,,Scattered Clouds,60,2013-03-20 14:15:00
10:35 AM,59.0,26.6,29,30.11,10.0,ENE,11.5,-,N/A,,Clear,60,2013-03-20 14:35:00
10:55 AM,59.0,26.6,29,30.11,10.0,ENE,9.2,-,N/A,,Clear,60,2013-03-20 14:55:00
11:15 AM,60.8,28.4,29,30.09,10.0,NE,9.2,-,N/A,,Clear,50,2013-03-20 15:15:00
11:55 AM,62.6,28.4,27,30.08,10.0,East,6.9,-,N/A,,Clear,90,2013-03-20 15:55:00
12:15 PM,62.6,28.4,27,30.08,10.0,NNE,4.6,-,N/A,,Scattered Clouds,20,2013-03-20 16:15:00
12:35 PM,62.6,28.4,27,30.06,10.0,NE,3.5,-,N/A,,Clear,50,2013-03-20 16:35:00
12:55 PM,64.4,28.4,26,30.05,10.0,NE,5.8,-,N/A,,Clear,50,2013-03-20 16:55:00
1:15 PM,64.4,28.4,26,30.04,10.0,NE,5.8,-,N/A,,Clear,50,2013-03-20 17:15:00
1:35 PM,64.4,28.4,26,30.03,10.0,NE,4.6,-,N/A,,Clear,50,2013-03-20 17:35:00
1:55 PM,64.4,28.4,26,30.02,10.0,Calm,Calm,-,N/A,,Clear,0,2013-03-20 17:55:00
2:15 PM,66.2,30.2,26,29.98,10.0,Calm,Calm,-,N/A,,Clear,0,2013-03-20 18:15:00
2:35 PM,68.0,30.2,24,29.96,10.0,East,5.8,-,N/A,,Clear,80,2013-03-20 18:35:00
2:55 PM,68.0,30.2,24,29.95,10.0,Calm,Calm,-,N/A,,Clear,0,2013-03-20 18:55:00
3:15 PM,68.0,30.2,24,29.93,10.0,NW,3.5,-,N/A,,Scattered Clouds,320,2013-03-20 19:15:00
3:35 PM,68.0,30.2,24,29.93,10.0,Calm,Calm,-,N/A,,Clear,0,2013-03-20 19:35:00
3:55 PM,68.0,32.0,26,29.92,10.0,NNW,5.8,-,N/A,,Scattered Clouds,340,2013-03-20 19:55:00
4:15 PM,66.2,32.0,28,29.92,10.0,North,4.6,-,N/A,,Scattered Clouds,360,2013-03-20 20:15:00
4:35 PM,64.4,32.0,30,29.93,10.0,NW,6.9,-,N/A,,Mostly Cloudy,310,2013-03-20 20:35:00
4:55 PM,64.4,32.0,30,29.93,10.0,North,8.1,-,N/A,,Mostly Cloudy,350,2013-03-20 20:55:00
5:15 PM,64.4,32.0,30,29.93,10.0,NNW,9.2,-,N/A,,Scattered Clouds,340,2013-03-20 21:15:00
5:35 PM,62.6,32.0,32,29.93,10.0,NNW,5.8,-,N/A,,Clear,340,2013-03-20 21:35:00
5:55 PM,62.6,30.2,30,29.91,10.0,NNW,5.8,-,N/A,,Clear,340,2013-03-20 21:55:00
6:15 PM,62.6,32.0,32,29.90,10.0,North,3.5,-,N/A,,Clear,10,2013-03-20 22:15:00
6:35 PM,62.6,32.0,32,29.91,10.0,Calm,Calm,-,N/A,,Clear,0,2013-03-20 22:35:00
6:55 PM,59.0,41.0,51,29.90,10.0,Calm,Calm,-,N/A,,Clear,0,2013-03-20 22:55:00
7:15 PM,59.0,41.0,51,29.90,10.0,Calm,Calm,-,N/A,,Clear,0,2013-03-20 23:15:00
7:35 PM,55.4,42.8,63,29.89,10.0,Calm,Calm,-,N/A,,Clear,0,2013-03-20 23:35:00
7:55 PM,55.4,42.8,63,29.89,10.0,Calm,Calm,-,N/A,,Clear,0,2013-03-20 23:55:00
8:15 PM,53.6,44.6,72,29.89,10.0,Calm,Calm,-,N/A,,Clear,0,2013-03-21 00:15:00
8:35 PM,51.8,42.8,71,29.89,10.0,Calm,Calm,-,N/A,,Clear,0,2013-03-21 00:35:00
8:55 PM,50.0,42.8,76,29.89,10.0,Calm,Calm,-,N/A,,Clear,0,2013-03-21 00:55:00
9:15 PM,48.2,42.8,82,29.90,10.0,Calm,Calm,-,N/A,,Clear,0,2013-03-21 01:15:00
9:35 PM,46.4,42.8,87,29.90,10.0,Calm,Calm,-,N/A,,Clear,0,2013-03-21 01:35:00
9:55 PM,46.4,42.8,87,29.90,10.0,Calm,Calm,-,N/A,,Clear,0,2013-03-21 01:55:00
10:15 PM,44.6,42.8,93,29.90,10.0,Calm,Calm,-,N/A,,Clear,0,2013-03-21 02:15:00
10:35 PM,44.6,42.8,93,29.89,10.0,Calm,Calm,-,N/A,,Clear,0,2013-03-21 02:35:00
10:55 PM,44.6,42.8,93,29.89,10.0,West,5.8,-,N/A,,Clear,280,2013-03-21 02:55:00
11:15 PM,44.6,41.0,87,29.89,10.0,West,3.5,-,N/A,,Clear,280,2013-03-21 03:15:00
11:35 PM,44.6,41.0,87,29.89,10.0,West,5.8,-,N/A,,Clear,280,2013-03-21 03:35:00
11:55 PM,46.4,41.0,81,29.89,10.0,West,5.8,-,N/A,,Clear,280,2013-03-21 03:55:00